Tracking 18852 objects as of 24-Nov-2017
HD Live streaming from Space Station
objects crossing your sky now

SCOUT A DEB

Track SCOUT A DEB now!
10-day predictions


NORAD ID: 3591
Int'l Code: 1966-041E
Perigee: 837.5 km
Apogee: 945.8 km
Inclination: 90.1 °
Period: 102.7 minutes
Semi major axis: 7262 km
RCS: 0.073 m2 (small)
Launch date: May 19, 1966
Source: United States (US)
Launch site: AIR FORCE WESTERN TEST RANGE (AFWTR)

Note: This is SATELLITE DEBRIS
aabbcc
Your satellite tracking list
Your tracking list is empty




NASA's NSSDC Master Catalog

Two Line Element Set (TLE):
1 03591U 66041E   17326.81711621  .00000065  00000-0  35065-4 0  9995
2 03591  90.1495  18.6354 0074613 293.8431  65.4941 14.02682939629242
Source of the keplerian elements: AFSPC